Change the Weather History Date:

Saturday, July 6, 2013

  Actual Average Record
Temperature  
Mean Temperature 77 °F 71 °F  
Max Temperature 87 °F 81 °F 98 °F (1993)
Min Temperature 67 °F 60 °F 47 °F (1963)
Degree Days  
Heating Degree Days 0 1  
Month to date heating degree days 0 6  
Since 1 June heating degree days 58 74  
Since 1 July heating degree days 0 6  
Cooling Degree Days 12 6  
Month to date cooling degree days 56 36  
Year to date cooling degree days 234 172  
Since 1 June cooling degree days 163 142  
Growing Degree Days 26 (Base 50)    
Moisture  
Dew Point 66 °F    
Average Humidity 72    
Maximum Humidity 93    
Minimum Humidity 51    
Precipitation  
Precipitation T in 0.11 in 3.25 in (1987)
Month to date precipitation 2.84 0.63  
Year to date precipitation 20.94 16.43  
Snow  
Snow 0.00 in 0.00 in 0.00 in ()
Month to date snowfall 0.0 0.0  
Since 1 June snowfall 0.0 0.0  
Since 1 July snowfall 0.0 0.0  
Snow Depth 0.00 in    
Sea Level Pressure  
Sea Level Pressure 30.10 in    
Wind  
Wind Speed 4 mph (WSW)    
Max Wind Speed 9 mph    
Max Gust Speed 13 mph    
Visibility 10 miles    
Events      
T = Trace of Precipitation, MM = Missing Value Source: NWS Daily Summary

Daily Weather History Graph

Daily Weather History Graph

Search for Another Location

Airport or City:

Trip Planner

Search our weather history database for the weather conditions in past years. The results will help you decide how hot, cold, wet, or windy it might be!

Date:

Astronomy

Jul. 06, 2013 Rise Set
Actual Time 5:38 AM EDT 8:52 PM EDT
Civil Twilight 5:03 AM EDT 9:27 PM EDT
Nautical Twilight 4:17 AM EDT 10:12 PM EDT
Astronomical Twilight 3:22 AM EDT 11:07 PM EDT
Moon 4:23 AM EDT (7/6) 7:31 PM EDT (7/6)
Length of Visible Light 16h 24m
Length of Day
15h 14m
Waning Crescent, 2% of the Moon is Illuminated
Jul 6
Waning Crescent
Jul 8
New
Jul 15
First Quarter
Jul 22
Full
Jul 29
Last Quarter

Hourly Weather History & Observations

Time (EDT) Temp. Heat Index Dew Point Humidity Pressure Visibility Wind Dir Wind Speed Gust Speed Precip Events Conditions
12:54 AM 72.0 °F - 68.0 °F 87% 30.10 in 10.0 mi WSW 5.8 mph - N/A   Partly Cloudy
1:54 AM 70.0 °F - 66.9 °F 90% 30.12 in 10.0 mi WSW 5.8 mph - N/A   Clear
2:54 AM 70.0 °F - 66.9 °F 90% 30.11 in 10.0 mi SSW 3.5 mph - N/A   Clear
3:54 AM 69.1 °F - 66.0 °F 90% 30.12 in 10.0 mi SW 5.8 mph - N/A   Clear
4:54 AM 68.0 °F - 66.0 °F 93% 30.12 in 10.0 mi SW 4.6 mph - N/A   Clear
5:54 AM 68.0 °F - 64.9 °F 90% 30.14 in 10.0 mi SW 4.6 mph - N/A   Scattered Clouds
6:54 AM 70.0 °F - 66.0 °F 87% 30.15 in 10.0 mi SW 5.8 mph - N/A   Scattered Clouds
7:54 AM 71.1 °F - 66.9 °F 87% 30.15 in 10.0 mi WSW 5.8 mph - N/A   Scattered Clouds
8:54 AM 73.0 °F - 68.0 °F 84% 30.16 in 10.0 mi WSW 5.8 mph - N/A   Scattered Clouds
9:54 AM 78.1 °F - 66.0 °F 66% 30.16 in 10.0 mi West 6.9 mph - N/A   Scattered Clouds
10:54 AM 80.1 °F 81.7 °F 64.0 °F 58% 30.15 in 10.0 mi Calm Calm - N/A   Mostly Cloudy
11:54 AM 82.0 °F 84.1 °F 66.0 °F 58% 30.14 in 10.0 mi Variable 3.5 mph - N/A   Mostly Cloudy
12:54 PM 82.0 °F 83.1 °F 63.0 °F 52% 30.13 in 10.0 mi Variable 3.5 mph - N/A   Mostly Cloudy
1:54 PM 82.9 °F 84.4 °F 64.0 °F 53% 30.12 in 10.0 mi Variable 3.5 mph - N/A   Mostly Cloudy
2:54 PM 84.0 °F 85.4 °F 64.0 °F 51% 30.10 in 10.0 mi SW 6.9 mph - N/A   Mostly Cloudy
3:54 PM 86.0 °F 88.2 °F 66.0 °F 51% 30.09 in 10.0 mi WSW 3.5 mph - N/A   Mostly Cloudy
4:54 PM 84.0 °F 86.3 °F 66.0 °F 55% 30.08 in 10.0 mi Calm Calm - N/A   Mostly Cloudy
5:54 PM 84.9 °F 88.2 °F 68.0 °F 57% 30.04 in 10.0 mi Variable 3.5 mph - N/A   Mostly Cloudy
6:54 PM 82.9 °F 85.8 °F 68.0 °F 60% 30.04 in 10.0 mi ENE 4.6 mph - N/A   Scattered Clouds
7:54 PM 82.0 °F 84.9 °F 68.0 °F 62% 30.03 in 10.0 mi North 4.6 mph - N/A   Scattered Clouds
8:54 PM 80.1 °F 82.3 °F 66.9 °F 64% 30.03 in 10.0 mi North 3.5 mph - N/A   Scattered Clouds
9:54 PM 79.0 °F - 66.0 °F 64% 30.06 in 10.0 mi ENE 3.5 mph - N/A   Scattered Clouds
10:54 PM 77.0 °F - 68.0 °F 74% 30.06 in 10.0 mi Calm Calm - N/A   Mostly Cloudy
11:54 PM 75.9 °F - 69.1 °F 79% 30.06 in 10.0 mi Calm Calm - N/A   Mostly Cloudy